| time (UTC) | temp F | wind direction | speed MPH | gust MPH | rain 1hr in | rain 24hr in | rain mn in | humidity % | barometer mb |
| 20260509063036 | 46 | 174 | 1.0 | 1.0 | 0.12 | 0.04 | 0.04 | 98 | 1009.9 |
| 20260509062532 | 46 | 174 | 1.0 | 1.0 | 0.12 | 0.03 | 0.03 | 97 | 1009.8 |
| 20260509062030 | 46 | 211 | 1.0 | 1.0 | 0.12 | 0.03 | 0.03 | 97 | 1009.9 |
| 20260509061527 | 46 | 196 | 0.0 | 1.0 | 0.12 | 0.02 | 0.02 | 96 | 1010.1 |
| 20260509061024 | 46 | 204 | 0.0 | 0.0 | 0.05 | 0.01 | 0.01 | 95 | 1010.2 |
| 20260509060521 | 46 | 159 | 1.0 | 2.0 | 0.00 | 0.00 | 0.00 | 95 | 1009.8 |
| 20260509060017 | 46 | 159 | 1.0 | 2.0 | 0.00 | 0.00 | 0.00 | 94 | 1009.9 |
| 20260509055512 | 46 | 159 | 0.0 | 1.0 | 0.00 | 0.00 | 0.00 | 94 | 1010.2 |
| 20260509055009 | 46 | 159 | 1.0 | 1.0 | 0.00 | 0.00 | 0.00 | 95 | 1010.1 |
| 20260509054506 | 46 | 159 | 0.0 | 1.0 | 0.00 | 0.00 | 0.00 | 94 | 1010.1 |
| 20260509054004 | 46 | 159 | 0.0 | 0.0 | 0.00 | 0.00 | 0.00 | 93 | 1009.8 |
| 20260509053502 | 46 | 159 | 0.0 | 0.0 | 0.00 | 0.00 | 0.00 | 93 | 1009.8 |
| 20260509052959 | 46 | 159 | 0.0 | 0.0 | 0.00 | 0.00 | 0.00 | 92 | 1009.6 |
| 20260509052456 | 46 | 159 | 1.0 | 1.0 | 0.00 | 0.00 | 0.00 | 91 | 1009.6 |
| 20260509051954 | 46 | 159 | 0.0 | 0.0 | 0.00 | 0.00 | 0.00 | 90 | 1009.7 |
| 20260509051452 | 46 | 159 | 0.0 | 0.0 | 0.00 | 0.00 | 0.00 | 91 | 1009.9 |
| 20260509050948 | 45 | 159 | 1.0 | 1.0 | 0.00 | 0.00 | 0.00 | 91 | 1009.9 |
| 20260509050445 | 45 | 159 | 1.0 | 1.0 | 0.00 | 0.00 | 0.00 | 91 | 1009.8 |
| 20260509045942 | 45 | 159 | 0.0 | 1.0 | 0.00 | 0.00 | 0.00 | 90 | 1009.9 |
| 20260509045439 | 45 | 159 | 0.0 | 1.0 | 0.00 | 0.00 | 0.00 | 90 | 1010.1 |
| 20260509044936 | 46 | 159 | 1.0 | 1.0 | 0.00 | 0.00 | 0.00 | 90 | 1010.2 |
| 20260509044434 | 45 | 159 | 0.0 | 0.0 | 0.00 | 0.00 | 0.00 | 90 | 1010.1 |
| 20260509043931 | 45 | 159 | 0.0 | 0.0 | 0.00 | 0.00 | 0.00 | 91 | 1010.3 |
| 20260509043426 | 45 | 159 | 1.0 | 1.0 | 0.00 | 0.00 | 0.00 | 91 | 1010.3 |
| 20260509042922 | 46 | 159 | 0.0 | 1.0 | 0.00 | 0.00 | 0.00 | 90 | 1010.3 |
| 20260509042420 | 45 | 159 | 1.0 | 1.0 | 0.00 | 0.00 | 0.00 | 90 | 1010.3 |
| 20260509041915 | 45 | 159 | 1.0 | 1.0 | 0.00 | 0.00 | 0.00 | 90 | 1010.2 |
| 20260509041412 | 45 | 159 | 0.0 | 1.0 | 0.00 | 0.00 | 0.00 | 90 | 1010.4 |
| 20260509040910 | 45 | 159 | 1.0 | 1.0 | 0.00 | 0.00 | 0.00 | 90 | 1009.9 |
| 20260509040408 | 45 | 159 | 0.0 | 1.0 | 0.00 | 0.00 | 0.00 | 90 | 1010.2 |
| 20260509035905 | 45 | 159 | 1.0 | 1.0 | 0.00 | 0.08 | 0.08 | 90 | 1010.4 |
| 20260509035402 | 44 | 159 | 1.0 | 1.0 | 0.00 | 0.08 | 0.08 | 90 | 1010.3 |
| 20260509034858 | 44 | 159 | 1.0 | 1.0 | 0.00 | 0.08 | 0.08 | 90 | 1010.1 |
| 20260509034356 | 44 | 159 | 1.0 | 1.0 | 0.00 | 0.08 | 0.08 | 91 | 1010.3 |
| 20260509033853 | 44 | 159 | 1.0 | 1.0 | 0.00 | 0.08 | 0.08 | 92 | 1010.3 |
| 20260509033350 | 44 | 159 | 1.0 | 1.0 | 0.00 | 0.08 | 0.08 | 91 | 1010.1 |
| 20260509032846 | 44 | 159 | 0.0 | 1.0 | 0.00 | 0.08 | 0.08 | 90 | 1010.3 |
| 20260509032343 | 44 | 159 | 0.0 | 0.0 | 0.00 | 0.08 | 0.08 | 89 | 1010.2 |
| 20260509031841 | 44 | 159 | 1.0 | 1.0 | 0.00 | 0.08 | 0.08 | 89 | 1009.9 |
| 20260509031333 | 45 | 159 | 1.0 | 1.0 | 0.00 | 0.08 | 0.08 | 89 | 1009.8 |
| 20260509030830 | 45 | 159 | 0.0 | 1.0 | 0.00 | 0.08 | 0.08 | 89 | 1010.1 |
| 20260509030328 | 45 | 159 | 1.0 | 1.0 | 0.00 | 0.08 | 0.08 | 87 | 1010.3 |
| 20260509025825 | 46 | 159 | 1.0 | 1.0 | 0.00 | 0.08 | 0.08 | 87 | 1010.4 |
| 20260509025320 | 46 | 159 | 0.0 | 1.0 | 0.00 | 0.08 | 0.08 | 87 | 1010.2 |
| 20260509024816 | 46 | 159 | 0.0 | 0.0 | 0.00 | 0.08 | 0.08 | 86 | 1009.9 |
| 20260509024312 | 46 | 159 | 0.0 | 0.0 | 0.00 | 0.08 | 0.08 | 86 | 1009.8 |
| 20260509023809 | 47 | 159 | 0.0 | 0.0 | 0.00 | 0.08 | 0.08 | 84 | 1010.4 |
| 20260509023307 | 47 | 159 | 1.0 | 1.0 | 0.00 | 0.08 | 0.08 | 84 | 1010.3 |
| 20260509022803 | 47 | 159 | 0.0 | 1.0 | 0.00 | 0.08 | 0.08 | 84 | 1010.2 |
| 20260509022301 | 47 | 159 | 0.0 | 0.0 | 0.00 | 0.08 | 0.08 | 84 | 1010.3 |
| 20260509021757 | 47 | 159 | 0.0 | 0.0 | 0.00 | 0.08 | 0.08 | 84 | 1010.2 |
| 20260509021254 | 47 | 159 | 1.0 | 1.0 | 0.00 | 0.08 | 0.08 | 84 | 1010.2 |
| 20260509020752 | 47 | 159 | 0.0 | 0.0 | 0.00 | 0.08 | 0.08 | 84 | 1010.2 |
| 20260509020250 | 48 | 159 | 0.0 | 0.0 | 0.00 | 0.08 | 0.08 | 83 | 1010.2 |
| 20260509015747 | 48 | 159 | 0.0 | 0.0 | 0.00 | 0.08 | 0.08 | 84 | 1009.9 |
| 20260509015245 | 48 | 159 | 0.0 | 1.0 | 0.00 | 0.08 | 0.08 | 84 | 1009.6 |
| 20260509014741 | 48 | 159 | 0.0 | 0.0 | 0.00 | 0.08 | 0.08 | 83 | 1009.9 |
| 20260509014239 | 48 | 159 | 1.0 | 1.0 | 0.00 | 0.08 | 0.08 | 84 | 1010.1 |
| 20260509013735 | 48 | 159 | 0.0 | 0.0 | 0.00 | 0.08 | 0.08 | 83 | 1009.9 |
| 20260509013231 | 48 | 159 | 0.0 | 0.0 | 0.00 | 0.08 | 0.08 | 83 | 1009.8 |
| 20260509012728 | 48 | 159 | 0.0 | 0.0 | 0.00 | 0.08 | 0.08 | 83 | 1009.9 |
| 20260509012224 | 48 | 159 | 0.0 | 0.0 | 0.00 | 0.08 | 0.08 | 83 | 1009.6 |
| 20260509011722 | 48 | 159 | 0.0 | 0.0 | 0.00 | 0.08 | 0.08 | 83 | 1009.5 |
| 20260509011219 | 48 | 159 | 0.0 | 1.0 | 0.00 | 0.08 | 0.08 | 82 | 1009.6 |
| 20260509010717 | 48 | 159 | 0.0 | 1.0 | 0.00 | 0.08 | 0.08 | 82 | 1009.3 |
| 20260509010213 | 48 | 159 | 0.0 | 0.0 | 0.00 | 0.08 | 0.08 | 82 | 1009.2 |
| 20260509005711 | 48 | 159 | 0.0 | 1.0 | 0.00 | 0.08 | 0.08 | 82 | 1009.1 |
| 20260509005208 | 48 | 159 | 0.0 | 1.0 | 0.00 | 0.08 | 0.08 | 81 | 1009.3 |
| 20260509004702 | 48 | 159 | 0.0 | 1.0 | 0.00 | 0.08 | 0.08 | 82 | 1009.3 |
| 20260509004200 | 48 | 159 | 0.0 | 0.0 | 0.00 | 0.08 | 0.08 | 81 | 1009.3 |
| 20260509003658 | 48 | 159 | 0.0 | 0.0 | 0.00 | 0.08 | 0.08 | 80 | 1009.3 |
| 20260509003155 | 48 | 159 | 0.0 | 1.0 | 0.00 | 0.08 | 0.08 | 81 | 1009.2 |
| 20260509002653 | 48 | 159 | 0.0 | 0.0 | 0.00 | 0.08 | 0.08 | 80 | 1009.0 |
| 20260509002150 | 48 | 159 | 0.0 | 0.0 | 0.00 | 0.08 | 0.08 | 79 | 1009.5 |
| 20260509001648 | 49 | 159 | 0.0 | 1.0 | 0.00 | 0.08 | 0.08 | 79 | 1009.2 |
| 20260509001143 | 49 | 159 | 1.0 | 1.0 | 0.00 | 0.08 | 0.08 | 79 | 1009.1 |
| 20260509000641 | 49 | 160 | 0.0 | 0.0 | 0.00 | 0.08 | 0.08 | 77 | 1008.9 |
| 20260509000138 | 50 | 160 | 0.0 | 0.0 | 0.00 | 0.08 | 0.08 | 76 | 1008.7 |
| 20260508235635 | 50 | 170 | 1.0 | 1.0 | 0.00 | 0.08 | 0.08 | 75 | 1008.7 |
| 20260508235132 | 50 | 170 | 0.0 | 0.0 | 0.00 | 0.08 | 0.08 | 75 | 1008.7 |
| 20260508234629 | 51 | 170 | 0.0 | 0.0 | 0.00 | 0.08 | 0.08 | 74 | 1008.8 |
| 20260508234125 | 51 | 170 | 1.0 | 1.0 | 0.00 | 0.08 | 0.08 | 73 | 1009.0 |
| 20260508233625 | 51 | 170 | 0.0 | 0.0 | 0.00 | 0.08 | 0.08 | 71 | 1008.8 |
| 20260508233122 | 51 | 171 | 0.0 | 0.0 | 0.00 | 0.08 | 0.08 | 70 | 1008.7 |
| 20260508232619 | 52 | 171 | 0.0 | 0.0 | 0.00 | 0.08 | 0.08 | 70 | 1008.5 |
| 20260508232116 | 52 | 170 | 0.0 | 1.0 | 0.00 | 0.08 | 0.08 | 70 | 1008.6 |
| 20260508231614 | 52 | 171 | 0.0 | 0.0 | 0.00 | 0.08 | 0.08 | 68 | 1008.7 |
| 20260508231110 | 53 | 170 | 1.0 | 1.0 | 0.00 | 0.08 | 0.08 | 67 | 1008.8 |
| 20260508230607 | 53 | 171 | 1.0 | 1.0 | 0.00 | 0.08 | 0.08 | 67 | 1008.6 |
| 20260508230103 | 53 | 245 | 1.0 | 1.0 | 0.00 | 0.08 | 0.08 | 65 | 1008.5 |
| 20260508225601 | 53 | 163 | 2.0 | 2.0 | 0.00 | 0.08 | 0.08 | 65 | 1008.9 |
| 20260508225057 | 53 | 37 | 2.0 | 3.0 | 0.00 | 0.08 | 0.08 | 64 | 1008.8 |
| 20260508224555 | 53 | 208 | 0.0 | 0.0 | 0.00 | 0.08 | 0.08 | 65 | 1008.8 |
| 20260508224052 | 53 | 186 | 1.0 | 1.0 | 0.00 | 0.08 | 0.08 | 64 | 1008.6 |
| 20260508223550 | 53 | 164 | 0.0 | 0.0 | 0.00 | 0.08 | 0.08 | 66 | 1008.6 |
| 20260508223047 | 53 | 194 | 2.0 | 2.0 | 0.00 | 0.08 | 0.08 | 62 | 1008.5 |
| 20260508222544 | 53 | 197 | 1.0 | 2.0 | 0.00 | 0.08 | 0.08 | 63 | 1008.3 |
| 20260508222041 | 53 | 185 | 0.0 | 0.0 | 0.00 | 0.08 | 0.08 | 66 | 1008.2 |
| 20260508221537 | 53 | 180 | 0.0 | 0.0 | 0.00 | 0.08 | 0.08 | 67 | 1008.4 |
| 20260508221033 | 53 | 187 | 0.0 | 1.0 | 0.00 | 0.08 | 0.08 | 67 | 1008.4 |
| 20260508220530 | 53 | 175 | 0.0 | 0.0 | 0.00 | 0.08 | 0.08 | 68 | 1008.3 |
| 20260508220026 | 54 | 177 | 1.0 | 1.0 | 0.00 | 0.08 | 0.08 | 65 | 1008.6 |
| 20260508215524 | 54 | 179 | 0.0 | 1.0 | 0.00 | 0.08 | 0.08 | 63 | 1008.6 |
| 20260508215020 | 54 | 216 | 1.0 | 2.0 | 0.00 | 0.08 | 0.08 | 59 | 1008.3 |
| 20260508214518 | 54 | 219 | 0.0 | 0.0 | 0.00 | 0.08 | 0.08 | 62 | 1008.4 |
| 20260508214014 | 54 | 231 | 2.0 | 2.0 | 0.00 | 0.08 | 0.08 | 60 | 1008.5 |
| 20260508213512 | 55 | 237 | 1.0 | 2.0 | 0.00 | 0.08 | 0.08 | 60 | 1008.4 |
| 20260508213007 | 56 | 219 | 1.0 | 2.0 | 0.00 | 0.08 | 0.08 | 56 | 1008.5 |
| 20260508212504 | 55 | 190 | 1.0 | 2.0 | 0.00 | 0.08 | 0.08 | 56 | 1008.4 |
| 20260508212000 | 58 | 238 | 3.0 | 4.0 | 0.00 | 0.08 | 0.08 | 55 | 1008.4 |
| 20260508211455 | 58 | 286 | 0.0 | 1.0 | 0.00 | 0.08 | 0.08 | 54 | 1008.6 |
| 20260508210952 | 56 | 247 | 1.0 | 1.0 | 0.00 | 0.08 | 0.08 | 59 | 1008.3 |
| 20260508210449 | 55 | 217 | 2.0 | 2.0 | 0.00 | 0.08 | 0.08 | 56 | 1008.3 |
| 20260508205945 | 55 | 233 | 3.0 | 4.0 | 0.00 | 0.08 | 0.08 | 57 | 1008.4 |
| 20260508205443 | 55 | 229 | 2.0 | 2.0 | 0.00 | 0.08 | 0.08 | 57 | 1008.4 |
| 20260508204939 | 55 | 164 | 1.0 | 2.0 | 0.00 | 0.08 | 0.08 | 59 | 1008.5 |
| 20260508204437 | 55 | 248 | 2.0 | 3.0 | 0.00 | 0.08 | 0.08 | 58 | 1008.4 |
| 20260508203931 | 55 | 248 | 2.0 | 2.0 | 0.00 | 0.08 | 0.08 | 55 | 1008.6 |
| 20260508203428 | 56 | 229 | 3.0 | 6.0 | 0.00 | 0.08 | 0.08 | 54 | 1008.4 |
| 20260508202924 | 58 | 223 | 7.0 | 8.0 | 0.00 | 0.08 | 0.08 | 52 | 1008.3 |
| 20260508202421 | 58 | 229 | 4.0 | 7.0 | 0.00 | 0.08 | 0.08 | 52 | 1008.6 |
| 20260508201918 | 59 | 235 | 2.0 | 3.0 | 0.00 | 0.08 | 0.08 | 56 | 1008.5 |
| 20260508201415 | 58 | 224 | 4.0 | 7.0 | 0.00 | 0.08 | 0.08 | 54 | 1008.5 |
| 20260508200911 | 57 | 225 | 4.0 | 4.0 | 0.00 | 0.08 | 0.08 | 55 | 1008.6 |
| 20260508200409 | 57 | 258 | 4.0 | 4.0 | 0.00 | 0.08 | 0.08 | 55 | 1008.6 |
| 20260508195904 | 56 | 222 | 1.0 | 1.0 | 0.00 | 0.08 | 0.08 | 58 | 1008.5 |
| 20260508195401 | 55 | 240 | 2.0 | 3.0 | 0.00 | 0.08 | 0.08 | 63 | 1008.6 |
| 20260508194857 | 57 | 217 | 2.0 | 3.0 | 0.00 | 0.08 | 0.08 | 59 | 1008.7 |
| 20260508194354 | 57 | 225 | 3.0 | 3.0 | 0.00 | 0.08 | 0.08 | 56 | 1008.9 |
| 20260508193851 | 56 | 196 | 4.0 | 4.0 | 0.00 | 0.08 | 0.08 | 60 | 1008.7 |
| 20260508193348 | 57 | 230 | 6.0 | 7.0 | 0.00 | 0.08 | 0.08 | 58 | 1008.9 |
| 20260508192844 | 56 | 250 | 2.0 | 3.0 | 0.00 | 0.08 | 0.08 | 63 | 1008.7 |
| 20260508192341 | 54 | 187 | 4.0 | 6.0 | 0.00 | 0.08 | 0.08 | 62 | 1008.9 |
| 20260508191838 | 55 | 233 | 2.0 | 3.0 | 0.00 | 0.08 | 0.08 | 61 | 1008.8 |
| 20260508191336 | 56 | 233 | 7.0 | 8.0 | 0.00 | 0.08 | 0.08 | 61 | 1008.9 |
| 20260508190833 | 55 | 239 | 5.0 | 6.0 | 0.00 | 0.08 | 0.08 | 65 | 1008.8 |
| 20260508190329 | 53 | 258 | 3.0 | 4.0 | 0.00 | 0.08 | 0.08 | 68 | 1009.1 |
| 20260508185826 | 52 | 317 | 2.0 | 3.0 | 0.00 | 0.08 | 0.08 | 69 | 1009.1 |
| 20260508185323 | 53 | 286 | 3.0 | 3.0 | 0.00 | 0.08 | 0.08 | 69 | 1009.3 |
| 20260508184820 | 54 | 269 | 6.0 | 9.0 | 0.00 | 0.08 | 0.08 | 66 | 1009.5 |
| 20260508184318 | 53 | 202 | 6.0 | 8.0 | 0.00 | 0.08 | 0.08 | 68 | 1009.3 |
| 20260508183814 | 53 | 243 | 4.0 | 6.0 | 0.00 | 0.08 | 0.08 | 71 | 1009.3 |
| 20260508183311 | 51 | 189 | 1.0 | 2.0 | 0.00 | 0.08 | 0.08 | 77 | 1009.4 |
| 20260508182806 | 51 | 230 | 3.0 | 4.0 | 0.00 | 0.08 | 0.08 | 76 | 1009.3 |
| 20260508182306 | 51 | 224 | 3.0 | 3.0 | 0.00 | 0.08 | 0.08 | 77 | 1009.5 |
| 20260508181753 | 53 | 230 | 6.0 | 7.0 | 0.00 | 0.08 | 0.08 | 73 | 1009.3 |
| 20260508181250 | 51 | 248 | 2.0 | 3.0 | 0.00 | 0.08 | 0.08 | 74 | 1009.3 |
| 20260508180747 | 50 | 239 | 4.0 | 6.0 | 0.00 | 0.08 | 0.08 | 76 | 1009.4 |
| 20260508180244 | 48 | 213 | 5.0 | 6.0 | 0.00 | 0.08 | 0.08 | 77 | 1009.4 |
| 20260508175741 | 48 | 350 | 2.0 | 2.0 | 0.00 | 0.08 | 0.08 | 77 | 1009.3 |
| 20260508175237 | 49 | 237 | 5.0 | 8.0 | 0.00 | 0.08 | 0.08 | 71 | 1009.3 |
| 20260508174735 | 50 | 241 | 4.0 | 4.0 | 0.00 | 0.08 | 0.08 | 69 | 1009.1 |
| 20260508174232 | 49 | 80 | 3.0 | 4.0 | 0.00 | 0.08 | 0.08 | 70 | 1009.0 |
| 20260508173728 | 50 | 260 | 5.0 | 6.0 | 0.00 | 0.08 | 0.08 | 68 | 1009.0 |
| 20260508173225 | 50 | 265 | 4.0 | 4.0 | 0.00 | 0.08 | 0.08 | 67 | 1009.1 |
| 20260508172722 | 50 | 227 | 1.0 | 2.0 | 0.00 | 0.08 | 0.08 | 66 | 1008.7 |
| 20260508172219 | 50 | 224 | 2.0 | 3.0 | 0.00 | 0.08 | 0.08 | 64 | 1008.9 |
| 20260508171715 | 51 | 239 | 3.0 | 3.0 | 0.00 | 0.08 | 0.08 | 64 | 1009.0 |
| 20260508171211 | 51 | 334 | 3.0 | 3.0 | 0.00 | 0.08 | 0.08 | 63 | 1008.8 |
| 20260508170708 | 51 | 211 | 2.0 | 3.0 | 0.00 | 0.08 | 0.08 | 63 | 1008.7 |
| 20260508170206 | 51 | 227 | 2.0 | 3.0 | 0.00 | 0.08 | 0.08 | 62 | 1008.6 |
| 20260508165703 | 51 | 248 | 3.0 | 3.0 | 0.00 | 0.08 | 0.08 | 65 | 1008.6 |
| 20260508165200 | 52 | 71 | 2.0 | 3.0 | 0.00 | 0.08 | 0.08 | 65 | 1008.6 |
| 20260508164656 | 52 | 239 | 1.0 | 2.0 | 0.00 | 0.08 | 0.08 | 64 | 1008.8 |
| 20260508164153 | 52 | 217 | 2.0 | 2.0 | 0.00 | 0.08 | 0.08 | 63 | 1008.9 |
| 20260508163651 | 52 | 274 | 4.0 | 6.0 | 0.00 | 0.08 | 0.08 | 61 | 1008.7 |
| 20260508163148 | 52 | 244 | 5.0 | 6.0 | 0.00 | 0.08 | 0.08 | 63 | 1008.6 |
| 20260508162643 | 52 | 168 | 1.0 | 2.0 | 0.00 | 0.08 | 0.08 | 66 | 1009.0 |
| 20260508162141 | 52 | 174 | 2.0 | 2.0 | 0.00 | 0.08 | 0.08 | 63 | 1009.1 |
| 20260508161638 | 52 | 100 | 2.0 | 3.0 | 0.00 | 0.08 | 0.08 | 65 | 1008.7 |
| 20260508161135 | 53 | 104 | 0.0 | 1.0 | 0.00 | 0.08 | 0.08 | 61 | 1009.0 |
| 20260508160634 | 53 | 214 | 3.0 | 3.0 | 0.00 | 0.08 | 0.08 | 64 | 1008.7 |
| 20260508160131 | 53 | 221 | 2.0 | 3.0 | 0.00 | 0.08 | 0.08 | 59 | 1009.1 |
| 20260508155628 | 55 | 119 | 4.0 | 6.0 | 0.00 | 0.08 | 0.08 | 58 | 1008.8 |
| 20260508155124 | 54 | 150 | 1.0 | 1.0 | 0.00 | 0.08 | 0.08 | 63 | 1009.2 |
| 20260508154621 | 51 | 242 | 3.0 | 4.0 | 0.00 | 0.08 | 0.08 | 64 | 1009.1 |
| 20260508154118 | 49 | 218 | 3.0 | 4.0 | 0.00 | 0.08 | 0.08 | 71 | 1009.2 |
| 20260508153615 | 49 | 248 | 4.0 | 7.0 | 0.00 | 0.08 | 0.08 | 64 | 1009.4 |
| 20260508153112 | 50 | 112 | 3.0 | 4.0 | 0.00 | 0.08 | 0.08 | 64 | 1009.1 |
| 20260508152609 | 51 | 345 | 1.0 | 3.0 | 0.00 | 0.08 | 0.08 | 62 | 1009.0 |
| 20260508152104 | 53 | 195 | 3.0 | 3.0 | 0.00 | 0.08 | 0.08 | 63 | 1009.1 |
| 20260508151601 | 53 | 226 | 2.0 | 2.0 | 0.00 | 0.08 | 0.08 | 62 | 1009.0 |
| 20260508151058 | 53 | 203 | 1.0 | 2.0 | 0.00 | 0.08 | 0.08 | 60 | 1009.1 |
| 20260508150555 | 52 | 207 | 2.0 | 3.0 | 0.00 | 0.08 | 0.08 | 68 | 1009.2 |
| 20260508150050 | 51 | 213 | 3.0 | 4.0 | 0.00 | 0.08 | 0.08 | 63 | 1009.2 |
| 20260508145542 | 51 | 246 | 3.0 | 3.0 | 0.00 | 0.08 | 0.08 | 69 | 1009.1 |
| 20260508145038 | 51 | 176 | 1.0 | 2.0 | 0.00 | 0.08 | 0.08 | 67 | 1009.3 |
| 20260508144536 | 50 | 218 | 2.0 | 2.0 | 0.00 | 0.08 | 0.08 | 66 | 1009.3 |
| 20260508144033 | 50 | 174 | 2.0 | 2.0 | 0.00 | 0.08 | 0.08 | 69 | 1009.2 |
| 20260508143531 | 48 | 226 | 3.0 | 3.0 | 0.00 | 0.08 | 0.08 | 75 | 1009.4 |
| 20260508143026 | 48 | 183 | 1.0 | 1.0 | 0.00 | 0.08 | 0.08 | 77 | 1009.3 |
| 20260508142518 | 49 | 173 | 3.0 | 3.0 | 0.00 | 0.08 | 0.08 | 73 | 1009.4 |
| 20260508142015 | 51 | 207 | 2.0 | 2.0 | 0.00 | 0.08 | 0.08 | 70 | 1009.3 |
| 20260508141511 | 50 | 25 | 1.0 | 1.0 | 0.00 | 0.08 | 0.08 | 74 | 1009.4 |
| 20260508141009 | 51 | 178 | 2.0 | 2.0 | 0.00 | 0.08 | 0.08 | 71 | 1009.5 |
| 20260508140506 | 49 | 235 | 3.0 | 3.0 | 0.00 | 0.08 | 0.08 | 75 | 1009.3 |
| 20260508140002 | 49 | 198 | 2.0 | 2.0 | 0.00 | 0.08 | 0.08 | 74 | 1009.3 |
| 20260508135458 | 49 | 82 | 0.0 | 1.0 | 0.00 | 0.08 | 0.08 | 71 | 1009.3 |
| 20260508134955 | 50 | 53 | 1.0 | 1.0 | 0.00 | 0.08 | 0.08 | 74 | 1009.4 |
| 20260508134451 | 48 | 195 | 0.0 | 0.0 | 0.00 | 0.08 | 0.08 | 76 | 1009.7 |
| 20260508133948 | 47 | 224 | 1.0 | 1.0 | 0.00 | 0.08 | 0.08 | 85 | 1009.6 |
| 20260508133445 | 46 | 203 | 3.0 | 3.0 | 0.00 | 0.08 | 0.08 | 84 | 1009.7 |
| 20260508132942 | 47 | 210 | 0.0 | 0.0 | 0.00 | 0.08 | 0.08 | 83 | 1009.6 |
| 20260508132440 | 46 | 232 | 2.0 | 2.0 | 0.00 | 0.08 | 0.08 | 84 | 1009.6 |
| 20260508131937 | 46 | 35 | 1.0 | 2.0 | 0.00 | 0.08 | 0.08 | 86 | 1009.9 |
| 20260508131432 | 47 | 213 | 2.0 | 3.0 | 0.00 | 0.08 | 0.08 | 87 | 1009.9 |
| 20260508130929 | 46 | 211 | 2.0 | 2.0 | 0.00 | 0.08 | 0.08 | 85 | 1009.9 |
| 20260508130426 | 46 | 210 | 0.0 | 0.0 | 0.00 | 0.08 | 0.08 | 91 | 1010.1 |
| 20260508125922 | 46 | 159 | 1.0 | 1.0 | 0.00 | 0.08 | 0.08 | 90 | 1009.9 |
| 20260508125418 | 45 | 199 | 0.0 | 1.0 | 0.00 | 0.08 | 0.08 | 95 | 1009.8 |
| 20260508124916 | 43 | 263 | 2.0 | 2.0 | 0.00 | 0.08 | 0.08 | 96 | 1009.7 |
| 20260508124413 | 43 | 181 | 1.0 | 1.0 | 0.00 | 0.08 | 0.08 | 97 | 1009.7 |
| 20260508123911 | 42 | 138 | 0.0 | 1.0 | 0.00 | 0.08 | 0.08 | 98 | 1009.9 |
| 20260508123410 | 42 | 178 | 1.0 | 1.0 | 0.00 | 0.08 | 0.08 | 99 | 1009.9 |
| 20260508122905 | 42 | 189 | 1.0 | 1.0 | 0.00 | 0.08 | 0.08 | 99 | 1009.8 |
| 20260508122403 | 41 | 173 | 2.0 | 2.0 | 0.00 | 0.08 | 0.08 | 99 | 1009.8 |
| 20260508121900 | 41 | 173 | 2.0 | 2.0 | 0.00 | 0.08 | 0.08 | 99 | 1009.5 |
| 20260508121358 | 41 | 172 | 1.0 | 2.0 | 0.00 | 0.08 | 0.08 | 99 | 1009.6 |
| 20260508120855 | 41 | 153 | 0.0 | 0.0 | 0.00 | 0.08 | 0.08 | 99 | 1009.6 |
| 20260508120353 | 40 | 151 | 1.0 | 1.0 | 0.00 | 0.08 | 0.08 | 99 | 1009.9 |
| 20260508115850 | 40 | 160 | 1.0 | 1.0 | 0.00 | 0.08 | 0.08 | 99 | 1009.8 |
| 20260508115348 | 39 | 154 | 0.0 | 1.0 | 0.00 | 0.08 | 0.08 | 99 | 1009.7 |
| 20260508114844 | 39 | 158 | 0.0 | 0.0 | 0.00 | 0.08 | 0.08 | 99 | 1009.9 |
| 20260508114341 | 39 | 159 | 0.0 | 0.0 | 0.00 | 0.08 | 0.08 | 99 | 1009.9 |
| 20260508113838 | 38 | 126 | 1.0 | 1.0 | 0.00 | 0.08 | 0.08 | 99 | 1009.6 |
| 20260508113336 | 38 | 329 | 1.0 | 1.0 | 0.00 | 0.08 | 0.08 | 99 | 1009.8 |
| 20260508112832 | 38 | 186 | 0.0 | 1.0 | 0.00 | 0.08 | 0.08 | 99 | 1009.9 |
| 20260508112329 | 38 | 186 | 1.0 | 1.0 | 0.00 | 0.08 | 0.08 | 99 | 1009.9 |
| 20260508111826 | 38 | 186 | 2.0 | 2.0 | 0.00 | 0.08 | 0.08 | 99 | 1009.8 |
| 20260508111323 | 38 | 186 | 0.0 | 1.0 | 0.00 | 0.08 | 0.08 | 99 | 1009.7 |
| 20260508110820 | 38 | 186 | 0.0 | 0.0 | 0.00 | 0.08 | 0.08 | 99 | 1009.4 |
| 20260508110318 | 37 | 186 | 1.0 | 2.0 | 0.00 | 0.08 | 0.08 | 99 | 1009.6 |
| 20260508105817 | 37 | 186 | 1.0 | 1.0 | 0.00 | 0.08 | 0.08 | 99 | 1009.5 |
| 20260508105314 | 37 | 186 | 0.0 | 1.0 | 0.00 | 0.08 | 0.08 | 99 | 1009.7 |
| 20260508104811 | 37 | 186 | 0.0 | 0.0 | 0.00 | 0.08 | 0.08 | 99 | 1009.5 |
| 20260508104308 | 38 | 186 | 0.0 | 0.0 | 0.00 | 0.08 | 0.08 | 99 | 1009.4 |
| 20260508103805 | 38 | 186 | 0.0 | 0.0 | 0.00 | 0.08 | 0.08 | 99 | 1009.2 |
| 20260508103302 | 37 | 186 | 0.0 | 0.0 | 0.00 | 0.08 | 0.08 | 99 | 1009.5 |
| 20260508102800 | 37 | 186 | 1.0 | 1.0 | 0.00 | 0.08 | 0.08 | 99 | 1009.3 |
| 20260508102258 | 37 | 186 | 0.0 | 1.0 | 0.07 | 0.08 | 0.08 | 99 | 1009.4 |
| 20260508101755 | 37 | 186 | 0.0 | 1.0 | 0.07 | 0.08 | 0.08 | 99 | 1009.2 |
| 20260508101252 | 37 | 186 | 1.0 | 1.0 | 0.00 | 0.07 | 0.07 | 99 | 1009.4 |
| 20260508100749 | 37 | 186 | 0.0 | 1.0 | 0.00 | 0.07 | 0.07 | 99 | 1009.3 |
| 20260508100248 | 37 | 185 | 0.0 | 0.0 | 0.00 | 0.07 | 0.07 | 99 | 1009.1 |
| 20260508095743 | 37 | 185 | 0.0 | 0.0 | 0.00 | 0.07 | 0.07 | 99 | 1009.3 |
| 20260508095241 | 37 | 185 | 0.0 | 0.0 | 0.00 | 0.07 | 0.07 | 99 | 1009.2 |
| 20260508094737 | 37 | 185 | 1.0 | 1.0 | 0.00 | 0.07 | 0.07 | 99 | 1009.1 |
| 20260508094235 | 37 | 185 | 1.0 | 1.0 | 0.00 | 0.07 | 0.07 | 99 | 1009.1 |
| 20260508093732 | 36 | 185 | 1.0 | 2.0 | 0.00 | 0.07 | 0.07 | 99 | 1009.0 |
| 20260508093229 | 36 | 185 | 0.0 | 0.0 | 0.00 | 0.07 | 0.07 | 99 | 1008.7 |
| 20260508092726 | 36 | 185 | 0.0 | 0.0 | 0.00 | 0.07 | 0.07 | 99 | 1008.8 |
| 20260508092224 | 36 | 185 | 0.0 | 0.0 | 0.00 | 0.07 | 0.07 | 99 | 1009.0 |
| 20260508091722 | 36 | 185 | 0.0 | 0.0 | 0.00 | 0.07 | 0.07 | 99 | 1008.7 |
| 20260508091219 | 37 | 185 | 0.0 | 0.0 | 0.00 | 0.07 | 0.07 | 99 | 1008.6 |
| 20260508090717 | 37 | 185 | 0.0 | 0.0 | 0.00 | 0.07 | 0.07 | 99 | 1008.7 |
| 20260508090214 | 38 | 185 | 0.0 | 0.0 | 0.00 | 0.07 | 0.07 | 99 | 1008.7 |
| 20260508085710 | 38 | 185 | 0.0 | 1.0 | 0.00 | 0.07 | 0.07 | 99 | 1009.0 |
| 20260508085207 | 38 | 185 | 0.0 | 0.0 | 0.00 | 0.07 | 0.07 | 99 | 1009.0 |
| 20260508084703 | 38 | 185 | 0.0 | 1.0 | 0.00 | 0.07 | 0.07 | 99 | 1009.0 |
| 20260508084201 | 38 | 185 | 0.0 | 1.0 | 0.00 | 0.07 | 0.07 | 99 | 1008.9 |
| 20260508083658 | 37 | 185 | 0.0 | 0.0 | 0.00 | 0.07 | 0.07 | 99 | 1008.8 |
| 20260508083155 | 37 | 185 | 0.0 | 0.0 | 0.00 | 0.07 | 0.07 | 99 | 1008.6 |
| 20260508082650 | 37 | 185 | 0.0 | 0.0 | 0.00 | 0.07 | 0.07 | 99 | 1008.7 |
| 20260508082148 | 37 | 185 | 0.0 | 0.0 | 0.00 | 0.07 | 0.07 | 99 | 1008.7 |
| 20260508081645 | 37 | 185 | 1.0 | 1.0 | 0.00 | 0.07 | 0.07 | 99 | 1008.5 |
| 20260508081141 | 38 | 185 | 0.0 | 1.0 | 0.00 | 0.07 | 0.07 | 99 | 1008.6 |
| 20260508080638 | 38 | 185 | 0.0 | 0.0 | 0.00 | 0.07 | 0.07 | 99 | 1008.5 |
| 20260508080136 | 38 | 185 | 0.0 | 0.0 | 0.00 | 0.07 | 0.07 | 99 | 1008.7 |
| 20260508075627 | 38 | 186 | 0.0 | 0.0 | 0.00 | 0.07 | 0.07 | 99 | 1008.5 |
| 20260508075124 | 38 | 186 | 0.0 | 0.0 | 0.00 | 0.07 | 0.07 | 99 | 1008.6 |
| 20260508074622 | 38 | 185 | 0.0 | 0.0 | 0.00 | 0.07 | 0.07 | 99 | 1008.6 |
| 20260508074119 | 38 | 185 | 0.0 | 0.0 | 0.00 | 0.07 | 0.07 | 99 | 1008.4 |
| 20260508073616 | 39 | 185 | 0.0 | 0.0 | 0.00 | 0.07 | 0.07 | 99 | 1008.4 |
| 20260508073114 | 39 | 186 | 0.0 | 0.0 | 0.00 | 0.07 | 0.07 | 99 | 1008.5 |
| 20260508072609 | 39 | 185 | 0.0 | 0.0 | 0.00 | 0.07 | 0.07 | 99 | 1008.3 |
| 20260508072106 | 40 | 186 | 0.0 | 0.0 | 0.00 | 0.07 | 0.07 | 99 | 1008.4 |
| 20260508071604 | 40 | 186 | 0.0 | 0.0 | 0.00 | 0.07 | 0.07 | 99 | 1008.6 |
| 20260508071103 | 41 | 186 | 0.0 | 0.0 | 0.00 | 0.07 | 0.07 | 99 | 1008.5 |
| 20260508070559 | 41 | 186 | 0.0 | 0.0 | 0.00 | 0.07 | 0.07 | 99 | 1008.4 |
| 20260508070058 | 41 | 186 | 0.0 | 1.0 | 0.00 | 0.07 | 0.07 | 99 | 1008.7 |
| 20260508065555 | 41 | 186 | 1.0 | 1.0 | 0.00 | 0.07 | 0.07 | 99 | 1008.2 |
| 20260508065053 | 41 | 186 | 1.0 | 1.0 | 0.00 | 0.07 | 0.07 | 99 | 1008.3 |
| 20260508064550 | 41 | 185 | 0.0 | 0.0 | 0.00 | 0.07 | 0.07 | 99 | 1008.3 |
| 20260508064048 | 41 | 185 | 1.0 | 1.0 | 0.00 | 0.07 | 0.07 | 99 | 1008.6 |
| 20260508063545 | 41 | 185 | 1.0 | 1.0 | 0.00 | 0.07 | 0.07 | 99 | 1008.4 |